Location: Newark
(58.9986°N, 38.5006°E)
Time: 08:22:24
(UTC+00:00)

Explorer 7 - Pass Details

Date: 20 April 2021
Orbit: 484 x 677 km, 50.3° (Epoch: 11 May)

Event Time Altitude Azimuth Distance (km) Brightness Sun altitude
Rises 18:59:59 0° 233° (SW) 2,695 10.3 -13.4°
Reaches altitude 10° 19:02:29 10° 219° (SW) 1,839 9.3 -13.6°
Maximum altitude 19:05:49 23° 166° (SSE) 1,240 8.1 -13.8°
Enters shadow 19:06:17 23° 156° (SSE) 1,261 8.0 -13.9°
